Mackinac Island, MI

2:49 PM EDT on September 26, 2017 (GMT -0400)
Mackinac Island

Weather History for KMCD - April, 2013

Change the Weather History Date:

Thursday, April 11, 2013

  Actual Average Record
Temperature  
Mean Temperature 32 °F -  
Max Temperature 36 °F 44 °F 62 °F (1977)
Min Temperature 29 °F 28 °F 19 °F (1976)
Degree Days  
Heating Degree Days 32    
Moisture  
Dew Point 19 °F    
Average Humidity 60    
Maximum Humidity 92    
Minimum Humidity 50    
Precipitation  
Precipitation 0.01 in - - ()
Sea Level Pressure  
Sea Level Pressure 30.05 in    
Wind  
Wind Speed 14 mph (East)    
Max Wind Speed 24 mph    
Max Gust Speed 39 mph    
Visibility 9 miles    
Events Snow    
Averages and records for this station are not official NWS values.
T = Trace of Precipitation, MM = Missing Value Source: NWS Daily Summary

Daily Weather History Graph

Daily Weather History Graph

Search for Another Location

Airport or City:

Trip Planner

Search our weather history database for the weather conditions in past years. The results will help you decide how hot, cold, wet, or windy it might be!

Date:

Astronomy

Apr. 11, 2013 Rise Set
Actual Time 6:59 AM EDT 8:20 PM EDT
Civil Twilight 6:28 AM EDT 8:51 PM EDT
Nautical Twilight 5:51 AM EDT 9:28 PM EDT
Astronomical Twilight 5:11 AM EDT 10:08 PM EDT
Moon 7:26 AM EDT (4/11) 10:00 PM EDT (4/11)
Length of Visible Light 14h 22m
Length of Day
13h 21m
New Moon, 2% of the Moon is Illuminated
Apr 11
New Moon
Apr 18
First Quarter
Apr 25
Full
May 2
Last Quarter
May 9
New

Hourly Weather History & Observations

Time (EDT) Temp. Windchill Dew Point Humidity Pressure Visibility Wind Dir Wind Speed Gust Speed Precip Events Conditions
12:15 AM 33.1 °F 28.7 °F 27.5 °F 80% 30.12 in 10.0 mi NNE 4.6 mph - N/A   Clear
12:35 AM 34.0 °F 28.8 °F 27.3 °F 77% 30.10 in 10.0 mi NNE 5.8 mph - N/A   Clear
12:56 AM 35.1 °F 28.6 °F 27.0 °F 72% 30.10 in 10.0 mi NE 8.1 mph - N/A   Clear
1:15 AM 36.3 °F 28.9 °F 25.3 °F 64% 30.11 in 10.0 mi NE 10.4 mph - N/A   Clear
1:36 AM 36.5 °F 28.2 °F 23.7 °F 60% 30.12 in 10.0 mi NE 12.7 mph 19.6 mph N/A   Clear
1:56 AM 36.0 °F 28.0 °F 23.4 °F 60% 30.12 in 10.0 mi ENE 11.5 mph 19.6 mph N/A   Clear
2:15 AM 35.6 °F 27.5 °F 22.8 °F 60% 30.11 in 10.0 mi ENE 11.5 mph 23.0 mph N/A   Clear
2:36 AM 34.7 °F 26.4 °F 21.9 °F 60% 30.10 in 10.0 mi ENE 11.5 mph 18.4 mph N/A   Clear
2:56 AM 34.2 °F 25.7 °F 21.2 °F 59% 30.10 in 10.0 mi ENE 11.5 mph 19.6 mph N/A   Clear
3:15 AM 34.0 °F 22.7 °F 20.3 °F 57% 30.09 in 10.0 mi ENE 19.6 mph 26.5 mph N/A   Clear
3:36 AM 33.3 °F 22.8 °F 20.3 °F 59% 30.09 in 10.0 mi ENE 16.1 mph 24.2 mph N/A   Clear
3:56 AM 32.9 °F 23.7 °F 20.3 °F 60% 30.08 in 10.0 mi ENE 12.7 mph 24.2 mph N/A   Clear
4:15 AM 32.7 °F 21.8 °F 20.7 °F 61% 30.08 in 10.0 mi ENE 17.3 mph 26.5 mph N/A   Clear
4:36 AM 32.4 °F 22.1 °F 19.8 °F 60% 30.10 in 10.0 mi East 15.0 mph 24.2 mph N/A   Clear
4:56 AM 32.0 °F 21.2 °F 19.2 °F 59% 30.10 in 10.0 mi ENE 16.1 mph 26.5 mph N/A   Clear
5:15 AM 32.0 °F 21.2 °F 18.9 °F 58% 30.12 in 10.0 mi ENE 16.1 mph 24.2 mph N/A   Clear
5:36 AM 31.8 °F 21.4 °F 18.7 °F 58% 30.13 in 10.0 mi East 15.0 mph 21.9 mph N/A   Clear
5:56 AM 31.5 °F 21.8 °F 18.3 °F 58% 30.13 in 10.0 mi East 12.7 mph 20.7 mph N/A   Clear
6:15 AM 31.1 °F 20.5 °F 19.0 °F 61% 30.12 in 10.0 mi East 15.0 mph 27.6 mph N/A   Clear
6:36 AM 30.9 °F 19.1 °F 18.0 °F 59% 30.12 in 10.0 mi ENE 18.4 mph 27.6 mph N/A   Clear
6:56 AM 30.6 °F 18.6 °F 17.6 °F 59% 30.11 in 10.0 mi ENE 18.4 mph 29.9 mph N/A   Clear
7:15 AM 30.2 °F 18.9 °F 17.1 °F 58% 30.12 in 10.0 mi East 16.1 mph 28.8 mph N/A   Clear
7:36 AM 30.0 °F 17.9 °F 16.9 °F 58% 30.11 in 10.0 mi East 18.4 mph 32.2 mph N/A   Clear
7:56 AM 29.8 °F 18.0 °F 16.3 °F 57% 30.10 in 10.0 mi ENE 17.3 mph 29.9 mph N/A   Clear
8:15 AM 29.5 °F 16.5 °F 17.1 °F 60% 30.09 in 10.0 mi ENE 20.7 mph 32.2 mph N/A   Clear
8:36 AM 29.3 °F 16.6 °F 15.8 °F 57% 30.11 in 10.0 mi ENE 19.6 mph 28.8 mph N/A   Clear
8:55 AM 29.3 °F 20.8 °F 15.4 °F 56% 30.18 in 10.0 mi East 9.2 mph 25.3 mph N/A   Clear
9:15 AM 29.3 °F 17.7 °F 14.4 °F 54% 30.16 in 10.0 mi East 16.1 mph 24.2 mph N/A   Clear
9:36 AM 29.3 °F 18.6 °F 14.5 °F 54% 30.12 in 10.0 mi East 13.8 mph 29.9 mph N/A   Clear
9:55 AM 29.1 °F 17.9 °F 14.9 °F 55% 30.12 in 10.0 mi East 15.0 mph 27.6 mph N/A   Clear
10:16 AM 29.1 °F 17.9 °F 14.7 °F 55% 30.10 in 10.0 mi ENE 15.0 mph 25.3 mph N/A   Scattered Clouds
10:36 AM 29.8 °F 18.4 °F 16.2 °F 57% 30.11 in 10.0 mi East 16.1 mph 29.9 mph N/A   Clear
10:55 AM 29.8 °F 18.4 °F 15.1 °F 54% 30.10 in 10.0 mi East 16.1 mph 23.0 mph N/A   Clear
11:16 AM 30.0 °F 17.2 °F 14.5 °F 53% 30.10 in 10.0 mi East 20.7 mph 33.4 mph N/A   Clear
11:36 AM 30.0 °F 17.9 °F 16.0 °F 56% 30.10 in 10.0 mi East 18.4 mph 29.9 mph N/A   Scattered Clouds
11:55 AM 29.8 °F 18.4 °F 15.4 °F 55% 30.11 in 10.0 mi East 16.1 mph 29.9 mph N/A   Overcast
12:16 PM 30.0 °F 19.5 °F 16.3 °F 57% 30.10 in 10.0 mi East 13.8 mph 32.2 mph N/A   Overcast
12:36 PM 30.2 °F 18.9 °F 15.8 °F 55% 30.08 in 10.0 mi East 16.1 mph 33.4 mph N/A   Mostly Cloudy
1:16 PM 30.2 °F 18.9 °F 16.0 °F 56% 30.08 in 10.0 mi East 16.1 mph 27.6 mph N/A   Mostly Cloudy
1:36 PM 30.4 °F 18.7 °F 16.5 °F 56% 30.08 in 10.0 mi East 17.3 mph 28.8 mph N/A   Overcast
1:55 PM 31.1 °F 23.1 °F 15.6 °F 53% 30.06 in 10.0 mi East 9.2 mph 28.8 mph N/A   Overcast
2:16 PM 31.3 °F 19.2 °F 16.0 °F 53% 30.06 in 10.0 mi East 19.6 mph 31.1 mph N/A   Overcast
2:36 PM 31.8 °F 20.2 °F 16.5 °F 53% 30.05 in 10.0 mi East 18.4 mph 34.5 mph N/A   Overcast
2:55 PM 31.6 °F 18.7 °F 16.5 °F 54% 30.05 in 10.0 mi East 23.0 mph 34.5 mph N/A   Overcast
3:16 PM 31.6 °F 19.7 °F 15.6 °F 52% 30.05 in 10.0 mi East 19.6 mph 34.5 mph N/A   Overcast
3:35 PM 31.8 °F 19.3 °F 15.6 °F 51% 30.03 in 10.0 mi East 21.9 mph 36.8 mph N/A   Overcast
3:55 PM 32.0 °F 21.2 °F 16.2 °F 52% 30.02 in 10.0 mi East 16.1 mph 33.4 mph N/A   Overcast
4:16 PM 32.2 °F 20.0 °F 17.2 °F 54% 30.02 in 10.0 mi East 20.7 mph 31.1 mph N/A   Overcast
4:35 PM 32.4 °F 21.3 °F 15.8 °F 51% 30.01 in 10.0 mi East 17.3 mph 29.9 mph N/A   Overcast
4:55 PM 32.9 °F 23.7 °F 16.5 °F 51% 30.00 in 10.0 mi East 12.7 mph 35.7 mph N/A   Overcast
5:16 PM 32.9 °F 21.0 °F 16.5 °F 51% 30.00 in 10.0 mi East 20.7 mph 33.4 mph N/A   Overcast
5:35 PM 33.1 °F 21.9 °F 16.9 °F 51% 30.01 in 10.0 mi East 18.4 mph 34.5 mph N/A   Overcast
5:55 PM 33.3 °F 23.2 °F 16.9 °F 51% 30.02 in 10.0 mi East 15.0 mph 38.0 mph N/A   Overcast
6:16 PM 33.1 °F 20.9 °F 17.4 °F 53% 30.02 in 10.0 mi East 21.9 mph 33.4 mph N/A   Overcast
6:35 PM 32.9 °F 23.2 °F 17.1 °F 52% 29.99 in 10.0 mi East 13.8 mph 31.1 mph N/A   Overcast
6:55 PM 33.3 °F 24.1 °F 18.1 °F 54% 29.98 in 10.0 mi East 12.7 mph 31.1 mph N/A   Overcast
7:16 PM 33.3 °F 22.8 °F 18.1 °F 54% 29.98 in 10.0 mi East 16.1 mph 28.8 mph N/A   Overcast
7:35 PM 33.4 °F 22.3 °F 18.3 °F 54% 29.96 in 10.0 mi East 18.4 mph 29.9 mph N/A   Overcast
7:55 PM 33.6 °F 22.6 °F 17.2 °F 51% 29.96 in 10.0 mi East 18.4 mph 31.1 mph N/A   Overcast
8:16 PM 33.8 °F 23.9 °F 16.9 °F 50% 29.97 in 10.0 mi East 15.0 mph 32.2 mph N/A   Overcast
8:35 PM 33.6 °F 21.9 °F 17.2 °F 51% 29.97 in 10.0 mi East 20.7 mph 31.1 mph N/A   Overcast
8:55 PM 33.1 °F 22.6 °F 17.1 °F 52% 29.97 in 10.0 mi East 16.1 mph 38.0 mph N/A   Overcast
9:16 PM 32.0 °F 20.8 °F 21.0 °F 64% 29.95 in 4.0 mi East 17.3 mph 33.4 mph N/A Snow Light Snow
9:35 PM 31.3 °F 19.2 °F 23.7 °F 74% 29.96 in 2.0 mi East 19.6 mph 32.2 mph N/A Snow Light Snow
9:55 PM 30.9 °F 19.4 °F 24.3 °F 76% 29.94 in 2.0 mi East 17.3 mph 33.4 mph N/A Snow Light Snow
10:16 PM 30.0 °F 17.5 °F 25.3 °F 83% 29.94 in 1.8 mi East 19.6 mph 35.7 mph N/A Snow Light Snow
10:35 PM 29.8 °F 17.3 °F 25.7 °F 85% 29.94 in 1.5 mi East 19.6 mph 34.5 mph N/A Snow Light Snow
10:55 PM 29.7 °F 16.4 °F 26.6 °F 88% 29.92 in 1.0 mi ENE 21.9 mph 39.1 mph N/A Snow Snow
11:16 PM 29.3 °F 15.9 °F 27.0 °F 91% 29.92 in 0.8 mi ENE 21.9 mph 35.7 mph N/A Snow Snow
11:35 PM 29.3 °F 15.3 °F 27.0 °F 91% 29.92 in 1.0 mi ENE 24.2 mph 36.8 mph N/A Snow Snow
11:56 PM 29.3 °F 16.2 °F 27.3 °F 92% 29.91 in 1.2 mi ENE 20.7 mph 35.7 mph 0.01 in Snow Light Snow